Location: Home
(42.5358°N, 72.7383°W)
Time: 17:06:14
(UTC-05:00)

Tiros 1 - Pass Details

Date: 04 December 2021
Orbit: 629 x 664 km, 48.4° (Epoch: 18 January)

Event Time Altitude Azimuth Distance (km) Brightness Sun altitude
Rises 01:01:33 0° 291° (WNW) 2,966 - -63.7°
Reaches altitude 10° 01:04:08 10° 280° (W) 2,058 - -63.4°
Maximum altitude 01:08:10 28° 222° (SW) 1,232 - -62.8°
Drops below altitude 10° 01:12:12 10° 164° (SSE) 2,064 - -62.3°
Sets 01:14:48 0° 152° (SSE) 2,976 - -61.9°
